Date String (YYYY-MM-DD hh:mm:ss) UTC,Instrument flags,Ambient pressure (hPa),Sample flow (lpm),Bypass flow (lpm),Sample temperature (°C),Ambient temperature (°C),ASC tube jacket temperature (°C),LED temperature (°C),Box temperature (°C),Sample RH (%),Span deviation,Mass concentration (μg/m³),Mass concentration (μg/m³),Mass concentration (μg/m³)
DateTimeUTC,F1_M11,P_M11,Q1_M11,Q2_M11,T1_M11,T2_M11,T3_M11,T4_M11,T5_M11,U1_M11,ZSPAN_M11,X2_M11,X0_M11,X1_M11
2023-05-17 22:00:00,,0828.2,4.99,0.00,29.2,27.6,00.0,37.5,31.0,16.4,0000.0,0004.45,0011.08,0003.43
2023-05-17 22:01:00,,0828.2,5.01,0.00,29.3,27.8,00.0,37.5,31.0,16.9,0000.0,0004.52,0011.86,0003.44
2023-05-17 22:02:00,,0828.2,5.00,0.00,29.3,27.9,00.0,37.5,31.0,16.7,0000.0,0004.50,0012.45,0003.44
2023-05-17 22:03:00,,0828.1,5.00,0.00,29.3,28.1,00.0,37.6,31.1,16.9,0000.0,0004.46,0011.32,0003.44
2023-05-17 22:04:00,,0828.1,4.99,0.00,29.4,28.2,00.0,37.6,31.1,17.1,0000.0,0004.47,0011.39,0003.44
2023-05-17 22:05:00,,0828.1,5.00,0.00,29.4,28.3,00.0,37.6,31.2,16.6,0000.0,0004.44,0011.56,0003.44
2023-05-17 22:06:00,,0828.0,5.00,0.00,29.4,27.9,00.0,37.6,31.2,17.3,0000.0,0004.38,0011.55,0003.43
2023-05-17 22:07:00,,0828.0,4.99,0.00,29.4,26.3,00.0,37.6,30.9,16.5,0000.0,0004.35,0011.65,0003.42
2023-05-17 22:08:00,,0827.9,5.01,0.00,29.3,26.0,00.0,37.5,30.8,16.6,0000.0,0004.38,0011.74,0003.43
2023-05-17 22:09:00,,0827.8,5.01,0.00,29.3,26.1,00.0,37.5,30.8,16.3,0000.0,0004.31,0011.81,0003.43
2023-05-17 22:10:00,,0827.8,4.99,0.00,29.3,26.4,00.0,37.5,30.8,16.6,0000.0,0004.30,0011.65,0003.44
2023-05-17 22:11:00,,0827.8,4.99,0.00,29.3,26.7,00.0,37.5,30.8,16.6,0000.0,0004.28,0010.87,0003.44
2023-05-17 22:12:00,,0827.8,5.00,0.00,29.3,27.0,00.0,37.5,30.9,16.4,0000.0,0004.25,0010.43,0003.44
2023-05-17 22:13:00,,0827.8,5.00,0.00,29.3,27.3,00.0,37.6,31.0,16.9,0000.0,0004.24,0009.79,0003.43
2023-05-17 22:14:00,,0827.8,5.00,0.00,29.3,27.5,00.0,37.6,31.0,16.7,0000.0,0004.32,0009.81,0003.43
2023-05-17 22:15:00,,0827.8,5.01,0.00,29.3,27.7,00.0,37.6,31.1,16.8,0000.0,0004.35,0009.70,0003.43
2023-05-17 22:16:00,,0827.8,5.01,0.00,29.4,27.9,00.0,37.6,31.1,16.6,0000.0,0004.36,0009.42,0003.44
2023-05-17 22:17:00,,0827.8,4.98,0.00,29.4,28.0,00.0,37.6,31.1,16.9,0000.0,0004.38,0009.32,0003.44
2023-05-17 22:18:00,,0827.8,5.00,0.00,29.4,28.2,00.0,37.7,31.2,17.1,0000.0,0004.40,0009.17,0003.44
2023-05-17 22:19:00,,0827.8,5.00,0.00,29.5,27.5,00.0,37.6,31.1,17.0,0000.0,0004.39,0009.28,0003.43
2023-05-17 22:20:00,,0827.7,5.01,0.00,29.4,26.0,00.0,37.6,30.9,17.3,0000.0,0004.43,0009.53,0003.44
2023-05-17 22:21:00,,0827.8,5.01,0.00,29.4,25.9,00.0,37.5,30.8,17.0,0000.0,0004.41,0009.34,0003.43
2023-05-17 22:22:00,,0827.7,5.00,0.00,29.3,26.1,00.0,37.5,30.8,17.6,0000.0,0004.43,0009.62,0003.44
2023-05-17 22:23:00,,0827.7,4.99,0.00,29.3,26.4,00.0,37.5,30.8,16.7,0000.0,0004.46,0009.48,0003.45
2023-05-17 22:24:00,,0827.7,4.99,0.00,29.3,26.7,00.0,37.5,30.9,16.7,0000.0,0004.47,0009.30,0003.46
2023-05-17 22:25:00,,0827.7,5.00,0.00,29.3,27.0,00.0,37.6,30.9,16.8,0000.0,0004.41,0009.26,0003.45
2023-05-17 22:26:00,,0827.7,5.01,0.00,29.3,27.3,00.0,37.6,31.0,17.5,0000.0,0004.38,0009.31,0003.45
2023-05-17 22:27:00,,0827.7,5.00,0.00,29.3,27.5,00.0,37.6,31.0,17.4,0000.0,0004.40,0009.33,0003.45
2023-05-17 22:28:00,,0827.7,4.98,0.00,29.4,27.7,00.0,37.6,31.1,16.9,0000.0,0004.41,0009.34,0003.45
2023-05-17 22:29:00,,0827.7,5.00,0.00,29.4,27.9,00.0,37.6,31.1,17.9,0000.0,0004.42,0009.49,0003.45
2023-05-17 22:30:00,,0827.7,5.01,0.00,29.4,28.1,00.0,37.7,31.2,18.5,0000.0,0004.42,0009.70,0003.45
2023-05-17 22:31:00,,0827.7,5.00,0.00,29.4,28.2,00.0,37.7,31.2,17.1,0000.0,0004.44,0009.36,0003.44
2023-05-17 22:32:00,,0827.8,4.98,0.00,29.5,28.0,00.0,37.7,31.2,18.0,0000.0,0004.45,0009.52,0003.43
2023-05-17 22:33:00,,0827.7,5.01,0.00,29.5,26.4,00.0,37.6,31.0,17.7,0000.0,0004.41,0009.68,0003.42
2023-05-17 22:34:00,,0827.7,5.00,0.00,29.4,25.9,00.0,37.6,30.9,18.0,0000.0,0004.34,0009.83,0003.41
2023-05-17 22:35:00,,0827.7,5.01,0.00,29.4,26.1,00.0,37.6,30.8,18.1,0000.0,0004.34,0009.85,0003.40
2023-05-17 22:36:00,,0827.7,5.01,0.00,29.3,26.3,00.0,37.6,30.8,19.0,0000.0,0004.37,0009.85,0003.40
2023-05-17 22:37:00,,0827.7,4.99,0.00,29.3,26.7,00.0,37.6,30.9,18.1,0000.0,0004.38,0009.97,0003.39
2023-05-17 22:38:00,,0827.7,4.99,0.00,29.3,27.0,00.0,37.6,30.9,16.7,0000.0,0004.35,0010.29,0003.38
2023-05-17 22:39:00,,0827.8,5.00,0.00,29.3,27.2,00.0,37.6,31.0,17.2,0000.0,0004.31,0010.89,0003.38
2023-05-17 22:40:00,,0827.8,5.01,0.00,29.3,27.5,00.0,37.6,31.0,17.5,0000.0,0004.31,0011.51,0003.37
2023-05-17 22:41:00,,0827.8,5.01,0.00,29.4,27.7,00.0,37.6,31.1,19.1,0000.0,0004.27,0012.47,0003.36
2023-05-17 22:42:00,,0827.8,4.99,0.00,29.4,27.9,00.0,37.6,31.1,18.1,0000.0,0004.26,0012.48,0003.37
2023-05-17 22:43:00,,0827.8,4.99,0.00,29.4,28.1,00.0,37.7,31.2,18.2,0000.0,0004.26,0012.92,0003.36
2023-05-17 22:44:00,,0827.8,5.02,0.00,29.5,28.2,00.0,37.7,31.2,17.7,0000.0,0004.25,0012.86,0003.36
2023-05-17 22:45:00,,0827.7,4.98,0.00,29.5,27.7,00.0,37.7,31.2,17.4,0000.0,0004.28,0012.26,0003.37
2023-05-17 22:46:00,,0827.7,5.00,0.00,29.4,25.8,00.0,37.6,30.9,18.1,0000.0,0004.28,0012.25,0003.36
2023-05-17 22:47:00,,0827.7,5.00,0.00,29.4,24.9,00.0,37.5,30.7,18.1,0000.0,0004.27,0012.27,0003.36
2023-05-17 22:48:00,,0827.7,5.00,0.00,29.3,25.1,00.0,37.5,30.6,18.0,0000.0,0004.26,0012.49,0003.36
2023-05-17 22:49:00,,0827.7,5.02,0.00,29.2,25.4,00.0,37.5,30.6,17.6,0000.0,0004.30,0012.69,0003.36
2023-05-17 22:50:00,,0827.7,5.00,0.00,29.2,25.8,00.0,37.5,30.7,17.0,0000.0,0004.33,0012.14,0003.36
2023-05-17 22:51:00,,0827.7,4.99,0.00,29.2,26.2,00.0,37.5,30.7,17.4,0000.0,0004.35,0011.58,0003.37
2023-05-17 22:52:00,,0827.8,5.00,0.00,29.2,26.6,00.0,37.5,30.8,18.5,0000.0,0004.35,0010.51,0003.38
2023-05-17 22:53:00,,0827.8,5.00,0.00,29.2,26.9,00.0,37.5,30.8,17.1,0000.0,0004.30,0010.38,0003.37
2023-05-17 22:54:00,,0827.8,4.99,0.00,29.2,27.2,00.0,37.5,30.9,17.2,0000.0,0004.30,0009.86,0003.37
2023-05-17 22:55:00,,0827.8,4.99,0.00,29.2,27.4,00.0,37.5,30.9,17.4,0000.0,0004.34,0010.30,0003.36
2023-05-17 22:56:00,,0827.8,5.00,0.00,29.2,27.6,00.0,37.5,31.0,17.8,0000.0,0004.37,0010.54,0003.35
2023-05-17 22:57:00,,0827.9,5.00,0.00,29.3,27.8,00.0,37.5,31.0,17.7,0000.0,0004.40,0010.72,0003.36
2023-05-17 22:58:00,,0827.7,5.00,0.00,29.3,28.0,00.0,37.6,31.1,17.8,0000.0,0004.42,0010.79,0003.36
2023-05-17 22:59:00,,0827.8,5.01,0.00,29.3,28.1,00.0,37.6,31.1,18.3,0000.0,0004.41,0010.22,0003.36
